MWI311 MMUN-MMSD

Flight info

Callsign MWI311
Flight time 3h 20m
Altitude 36000
Route UDGUV2A UDGUV DCT MUNDA UT23 ONBUL/N0456F380 UT23 TAM DCT SLP DCT MITIN DCT MZT70 DCT TENAY TENAY1A
Aircraft B738/M-SDE2E3FGHIRVWY/LB1

Departure

Time 2026-04-21 19:56
Airport Cancún International Airport (MMUN)

Arrival

Time 2026-04-21 23:16
Airport Los Cabos International Airport (MMSD)
Time Latitude Longitude Altitude Speed Heading
2026-04-21 19:17 21.04054 -86.87684 56 ft 0 kts 127°
2026-04-21 19:47 21.04061 -86.87693 37 ft 3 kts 128°
2026-04-21 19:48 21.04073 -86.87709 34 ft 2 kts 128°
2026-04-21 19:48 21.04085 -86.87723 34 ft 3 kts 145°
2026-04-21 19:48 21.04102 -86.87731 36 ft 3 kts 178°
2026-04-21 19:48 21.04121 -86.87728 36 ft 3 kts 202°
2026-04-21 19:49 21.04136 -86.87721 35 ft 1 kts 213°
2026-04-21 19:49 21.04140 -86.87718 35 ft 0 kts 213°
2026-04-21 19:51 21.04137 -86.87720 35 ft 3 kts 213°
2026-04-21 19:51 21.04086 -86.87756 36 ft 14 kts 214°
2026-04-21 19:52 21.03989 -86.87830 37 ft 18 kts 230°
2026-04-21 19:52 21.03988 -86.87912 35 ft 18 kts 301°
2026-04-21 19:52 21.04059 -86.88025 37 ft 20 kts 304°
2026-04-21 19:52 21.04153 -86.88176 37 ft 28 kts 304°
2026-04-21 19:53 21.04267 -86.88358 37 ft 29 kts 304°
2026-04-21 19:53 21.04373 -86.88527 37 ft 27 kts 303°
2026-04-21 19:53 21.04474 -86.88689 37 ft 25 kts 304°
2026-04-21 19:53 21.04567 -86.88838 37 ft 22 kts 303°
2026-04-21 19:54 21.04642 -86.88968 37 ft 19 kts 286°
2026-04-21 19:54 21.04598 -86.89039 37 ft 11 kts 214°
2026-04-21 19:54 21.04532 -86.89079 37 ft 11 kts 184°
2026-04-21 19:54 21.04485 -86.89023 37 ft 9 kts 123°
2026-04-21 19:55 21.04466 -86.88992 37 ft 10 kts 124°
2026-04-21 19:55 21.04290 -86.88711 37 ft 81 kts 123°
2026-04-21 19:55 21.03857 -86.88025 38 ft 142 kts 123°
2026-04-21 19:55 21.03254 -86.87044 412 ft 162 kts 119°
2026-04-21 19:56 21.02625 -86.86032 1208 ft 165 kts 117°
2026-04-21 19:56 21.01977 -86.84996 1946 ft 170 kts 127°
2026-04-21 19:56 21.00916 -86.84267 2386 ft 202 kts 164°
2026-04-21 19:56 20.99478 -86.84267 3001 ft 216 kts 191°
2026-04-21 19:57 20.98045 -86.85010 3165 ft 243 kts 217°
2026-04-21 19:57 20.96690 -86.86169 3504 ft 259 kts 222°
2026-04-21 19:57 20.95514 -86.87699 4116 ft 271 kts 241°
2026-04-21 19:57 20.94884 -86.89594 4951 ft 273 kts 258°
2026-04-21 19:58 20.94547 -86.91596 5814 ft 274 kts 262°
2026-04-21 19:58 20.94261 -86.93621 6630 ft 277 kts 262°
2026-04-21 19:58 20.93964 -86.95671 7372 ft 281 kts 261°
2026-04-21 19:58 20.93645 -86.97755 7791 ft 285 kts 260°
2026-04-21 19:59 20.93305 -86.99855 7963 ft 287 kts 260°
2026-04-21 19:59 20.92951 -87.01959 7964 ft 288 kts 259°
2026-04-21 19:59 20.92588 -87.04061 7972 ft 287 kts 259°
2026-04-21 19:59 20.92220 -87.06158 7975 ft 287 kts 259°
2026-04-21 20:00 20.91847 -87.08257 7983 ft 287 kts 259°
2026-04-21 20:00 20.91473 -87.10354 7974 ft 288 kts 259°
2026-04-21 20:00 20.91096 -87.12457 7973 ft 288 kts 259°
2026-04-21 20:00 20.90719 -87.14559 7969 ft 288 kts 259°
2026-04-21 20:01 20.90340 -87.16661 7976 ft 288 kts 259°
2026-04-21 20:01 20.89961 -87.18765 7975 ft 288 kts 259°
2026-04-21 20:01 20.89581 -87.20866 7973 ft 288 kts 259°
2026-04-21 20:01 20.89201 -87.22970 7966 ft 288 kts 259°
2026-04-21 20:02 20.88821 -87.25069 7960 ft 288 kts 259°
2026-04-21 20:02 20.88441 -87.27171 7960 ft 288 kts 259°
2026-04-21 20:02 20.88061 -87.29272 7956 ft 288 kts 259°
2026-04-21 20:02 20.87680 -87.31372 7951 ft 287 kts 259°
2026-04-21 20:03 20.87300 -87.33466 7952 ft 287 kts 259°
2026-04-21 20:03 20.86919 -87.35563 7945 ft 287 kts 259°
2026-04-21 20:03 20.86578 -87.37684 8113 ft 292 kts 261°
2026-04-21 20:03 20.86265 -87.39843 8877 ft 294 kts 261°
2026-04-21 20:04 20.85956 -87.42004 9750 ft 294 kts 261°
2026-04-21 20:04 20.85642 -87.44182 10354 ft 303 kts 261°
2026-04-21 20:04 20.85306 -87.46492 10553 ft 326 kts 261°
2026-04-21 20:04 20.84948 -87.48935 11000 ft 337 kts 261°
2026-04-21 20:05 20.84585 -87.51394 11659 ft 340 kts 261°
2026-04-21 20:05 20.84216 -87.53892 12360 ft 343 kts 261°
2026-04-21 20:05 20.83840 -87.56428 13012 ft 347 kts 261°
2026-04-21 20:05 20.83461 -87.58984 13663 ft 350 kts 261°
2026-04-21 20:06 20.83071 -87.61601 14258 ft 354 kts 262°
2026-04-21 20:06 20.82684 -87.64205 14920 ft 354 kts 261°
2026-04-21 20:06 20.82300 -87.66777 15606 ft 354 kts 261°
2026-04-21 20:06 20.81914 -87.69371 16249 ft 355 kts 261°
2026-04-21 20:07 20.81525 -87.71978 16862 ft 357 kts 261°
2026-04-21 20:07 20.81131 -87.74614 17404 ft 361 kts 261°
2026-04-21 20:07 20.80796 -87.77275 17988 ft 363 kts 268°
2026-04-21 20:07 20.81055 -87.79992 18232 ft 375 kts 280°
2026-04-21 20:08 20.81596 -87.82779 18327 ft 390 kts 282°
2026-04-21 20:08 20.82206 -87.85648 18418 ft 402 kts 282°
2026-04-21 20:08 20.82842 -87.88598 18646 ft 409 kts 282°
2026-04-21 20:08 20.83476 -87.91575 19032 ft 411 kts 282°
2026-04-21 20:09 20.84102 -87.94564 19456 ft 412 kts 282°
2026-04-21 20:09 20.84718 -87.97561 19864 ft 414 kts 282°
2026-04-21 20:09 20.85330 -88.00573 20263 ft 415 kts 282°
2026-04-21 20:09 20.85939 -88.03597 20647 ft 417 kts 282°
2026-04-21 20:10 20.86549 -88.06645 21012 ft 419 kts 282°
2026-04-21 20:10 20.87158 -88.09695 21381 ft 421 kts 282°
2026-04-21 20:10 20.87769 -88.12765 21747 ft 423 kts 282°
2026-04-21 20:10 20.88384 -88.15854 22099 ft 425 kts 282°
2026-04-21 20:11 20.89001 -88.18956 22435 ft 427 kts 282°
2026-04-21 20:11 20.89620 -88.22070 22775 ft 429 kts 282°
2026-04-21 20:11 20.90241 -88.25201 23118 ft 431 kts 282°
2026-04-21 20:11 20.90864 -88.28342 23431 ft 433 kts 282°
2026-04-21 20:12 20.91491 -88.31503 23722 ft 435 kts 282°
2026-04-21 20:12 20.92117 -88.34667 24006 ft 436 kts 282°
2026-04-21 20:12 20.92744 -88.37839 24307 ft 436 kts 282°
2026-04-21 20:12 20.93372 -88.41019 24621 ft 436 kts 282°
2026-04-21 20:13 20.93998 -88.44189 24912 ft 437 kts 282°
2026-04-21 20:13 20.94626 -88.47372 25210 ft 438 kts 282°
2026-04-21 20:13 20.95255 -88.50565 25541 ft 438 kts 282°
2026-04-21 20:13 20.95882 -88.53751 25829 ft 439 kts 282°
2026-04-21 20:14 20.96511 -88.56951 26096 ft 440 kts 282°
2026-04-21 20:14 20.97140 -88.60156 26343 ft 441 kts 282°
2026-04-21 20:14 20.97770 -88.63365 26582 ft 442 kts 282°
2026-04-21 20:14 20.98404 -88.66606 26833 ft 443 kts 282°
2026-04-21 20:15 20.99036 -88.69832 27088 ft 444 kts 282°
2026-04-21 20:15 20.99669 -88.73069 27344 ft 444 kts 282°
2026-04-21 20:15 21.00300 -88.76299 27603 ft 445 kts 282°
2026-04-21 20:15 21.00933 -88.79543 27809 ft 446 kts 282°
2026-04-21 20:16 21.01567 -88.82798 28018 ft 447 kts 282°
2026-04-21 20:16 21.02203 -88.86060 28249 ft 448 kts 282°
2026-04-21 20:16 21.02837 -88.89323 28544 ft 447 kts 282°
2026-04-21 20:16 21.03460 -88.92527 28939 ft 443 kts 282°
2026-04-21 20:17 21.04084 -88.95744 29364 ft 440 kts 282°
2026-04-21 20:17 21.04702 -88.98933 29761 ft 437 kts 282°
2026-04-21 20:17 21.05319 -89.02120 30112 ft 436 kts 282°
2026-04-21 20:17 21.05934 -89.05295 30391 ft 435 kts 282°
2026-04-21 20:18 21.06341 -89.07402 30577 ft 434 kts 282°
2026-04-21 20:18 21.07155 -89.11620 30990 ft 432 kts 282°
2026-04-21 20:18 21.07761 -89.14761 31273 ft 431 kts 281°
2026-04-21 20:18 21.08365 -89.17897 31559 ft 430 kts 281°
2026-04-21 20:19 21.08968 -89.21025 31840 ft 429 kts 281°
2026-04-21 20:19 21.09569 -89.24152 32134 ft 427 kts 281°
2026-04-21 20:19 21.10167 -89.27265 32443 ft 426 kts 281°
2026-04-21 20:19 21.10762 -89.30363 32752 ft 424 kts 281°
2026-04-21 20:20 21.11355 -89.33456 33044 ft 423 kts 281°
2026-04-21 20:20 21.11945 -89.36540 33329 ft 422 kts 280°
2026-04-21 20:20 21.12534 -89.39618 33620 ft 421 kts 280°
2026-04-21 20:20 21.13120 -89.42684 33904 ft 420 kts 280°
2026-04-21 20:21 21.13704 -89.45745 34168 ft 419 kts 280°
2026-04-21 20:21 21.14286 -89.48795 34402 ft 417 kts 280°
2026-04-21 20:21 21.14865 -89.51830 34652 ft 416 kts 280°
2026-04-21 20:21 21.15443 -89.54869 34898 ft 414 kts 280°
2026-04-21 20:22 21.16017 -89.57885 35124 ft 413 kts 280°
2026-04-21 20:22 21.17155 -89.63881 35521 ft 413 kts 280°
2026-04-21 20:22 21.17732 -89.66926 35739 ft 411 kts 280°
2026-04-21 20:23 21.18293 -89.69889 35978 ft 410 kts 280°
2026-04-21 20:23 21.18858 -89.72876 36069 ft 411 kts 280°
2026-04-21 20:23 21.19993 -89.78886 36076 ft 411 kts 280°
2026-04-21 20:24 21.21122 -89.84874 36090 ft 409 kts 280°
2026-04-21 20:24 21.22247 -89.90853 36088 ft 408 kts 280°
2026-04-21 20:25 21.23366 -89.96814 36086 ft 408 kts 279°
2026-04-21 20:25 21.24483 -90.02772 36088 ft 407 kts 279°
2026-04-21 20:26 21.25597 -90.08733 36089 ft 407 kts 279°
2026-04-21 20:26 21.26708 -90.14687 36086 ft 408 kts 279°
2026-04-21 20:27 21.27819 -90.20653 36080 ft 408 kts 279°
2026-04-21 20:27 21.28929 -90.26624 36081 ft 409 kts 279°
2026-04-21 20:28 21.30039 -90.32606 36082 ft 409 kts 279°
2026-04-21 20:28 21.31147 -90.38596 36081 ft 410 kts 279°
2026-04-21 20:29 21.32256 -90.44596 36080 ft 410 kts 279°
2026-04-21 20:29 21.33357 -90.50570 36082 ft 411 kts 279°
2026-04-21 20:30 21.34465 -90.56594 36078 ft 411 kts 279°
2026-04-21 20:30 21.35569 -90.62611 36076 ft 411 kts 279°
2026-04-21 20:31 21.36671 -90.68626 36078 ft 411 kts 279°
2026-04-21 20:31 21.37772 -90.74648 36083 ft 411 kts 279°
2026-04-21 20:32 21.38870 -90.80666 36085 ft 411 kts 279°
2026-04-21 20:32 21.39965 -90.86680 36083 ft 410 kts 279°
2026-04-21 20:33 21.41055 -90.92685 36084 ft 410 kts 279°
2026-04-21 20:33 21.42143 -90.98689 36083 ft 410 kts 279°
2026-04-21 20:34 21.43229 -91.04689 36086 ft 409 kts 279°
2026-04-21 20:34 21.44129 -91.09675 36084 ft 409 kts 279°
2026-04-21 20:35 21.45209 -91.15672 36088 ft 409 kts 279°
2026-04-21 20:35 21.46288 -91.21674 36088 ft 409 kts 279°
2026-04-21 20:36 21.47367 -91.27684 36088 ft 410 kts 279°
2026-04-21 20:36 21.48443 -91.33698 36086 ft 410 kts 279°
2026-04-21 20:37 21.49517 -91.39709 36085 ft 410 kts 279°
2026-04-21 20:37 21.50590 -91.45726 36082 ft 410 kts 279°
2026-04-21 20:38 21.51661 -91.51750 36086 ft 410 kts 279°
2026-04-21 20:38 21.52723 -91.57730 36087 ft 411 kts 279°
2026-04-21 20:39 21.53790 -91.63758 36086 ft 411 kts 279°
2026-04-21 20:39 21.54857 -91.69793 36085 ft 411 kts 279°
2026-04-21 20:40 21.55920 -91.75825 36082 ft 411 kts 279°
2026-04-21 20:40 21.56983 -91.81868 36086 ft 411 kts 279°
2026-04-21 20:41 21.58044 -91.87908 36086 ft 411 kts 279°
2026-04-21 20:41 21.59101 -91.93943 36086 ft 411 kts 279°
2026-04-21 20:42 21.60102 -91.99994 36081 ft 411 kts 277°
2026-04-21 20:42 21.60912 -92.06074 36081 ft 411 kts 276°
2026-04-21 20:43 21.61700 -92.12151 36082 ft 411 kts 276°
2026-04-21 20:43 21.62508 -92.18231 36082 ft 411 kts 277°
2026-04-21 20:44 21.63319 -92.24270 36083 ft 411 kts 277°
2026-04-21 20:44 21.64136 -92.30344 36083 ft 411 kts 276°
2026-04-21 20:45 21.64951 -92.36421 36082 ft 411 kts 276°
2026-04-21 20:45 21.65764 -92.42506 36083 ft 411 kts 276°
2026-04-21 20:46 21.66574 -92.48588 36083 ft 411 kts 276°
2026-04-21 20:46 21.67383 -92.54675 36080 ft 411 kts 276°
2026-04-21 20:47 21.68189 -92.60766 36081 ft 411 kts 276°
2026-04-21 20:47 21.68994 -92.66860 36082 ft 411 kts 276°
2026-04-21 20:48 21.69797 -92.72951 36079 ft 412 kts 276°
2026-04-21 20:48 21.70599 -92.79049 36078 ft 412 kts 276°
2026-04-21 20:49 21.71399 -92.85147 36079 ft 412 kts 276°
2026-04-21 20:49 21.72198 -92.91247 36080 ft 412 kts 276°
2026-04-21 20:50 21.72995 -92.97348 36079 ft 412 kts 276°
2026-04-21 20:50 21.73790 -93.03462 36079 ft 412 kts 276°
2026-04-21 20:51 21.74583 -93.09573 36079 ft 413 kts 276°
2026-04-21 20:51 21.75368 -93.15641 36081 ft 413 kts 276°
2026-04-21 20:52 21.76157 -93.21758 36081 ft 413 kts 276°
2026-04-21 20:52 21.76945 -93.27884 36079 ft 413 kts 276°
2026-04-21 20:53 21.77730 -93.34004 36080 ft 413 kts 276°
2026-04-21 20:53 21.78513 -93.40127 36080 ft 413 kts 276°
2026-04-21 20:54 21.79293 -93.46248 36076 ft 413 kts 276°
2026-04-21 20:54 21.80071 -93.52374 36077 ft 413 kts 276°
2026-04-21 20:55 21.80847 -93.58497 36080 ft 413 kts 276°
2026-04-21 20:55 21.81621 -93.64624 36074 ft 413 kts 276°
2026-04-21 20:56 21.82393 -93.70751 36078 ft 413 kts 276°
2026-04-21 20:56 21.83153 -93.76838 36076 ft 413 kts 276°
2026-04-21 20:57 21.83908 -93.82966 36075 ft 413 kts 276°
2026-04-21 20:57 21.84660 -93.89091 36076 ft 413 kts 276°
2026-04-21 20:58 21.85411 -93.95220 36077 ft 413 kts 276°
2026-04-21 20:58 21.86161 -94.01349 36074 ft 413 kts 276°
2026-04-21 20:59 21.86907 -94.07476 36076 ft 413 kts 276°
2026-04-21 20:59 21.87653 -94.13610 36078 ft 413 kts 276°
2026-04-21 21:00 21.88395 -94.19742 36071 ft 413 kts 276°
2026-04-21 21:00 21.89136 -94.25876 36079 ft 413 kts 276°
2026-04-21 21:01 21.89874 -94.32010 36079 ft 413 kts 276°
2026-04-21 21:01 21.90612 -94.38156 36070 ft 413 kts 276°
2026-04-21 21:02 21.91341 -94.44254 36077 ft 413 kts 276°
2026-04-21 21:02 21.92078 -94.50440 36075 ft 414 kts 276°
2026-04-21 21:03 21.92803 -94.56542 36070 ft 414 kts 276°
2026-04-21 21:03 21.93532 -94.62691 36073 ft 414 kts 276°
2026-04-21 21:04 21.94258 -94.68847 36068 ft 414 kts 276°
2026-04-21 21:04 21.94983 -94.75002 36071 ft 414 kts 276°
2026-04-21 21:05 21.95704 -94.81152 36071 ft 414 kts 276°
2026-04-21 21:05 21.96424 -94.87309 36069 ft 414 kts 276°
2026-04-21 21:06 21.97142 -94.93466 36070 ft 414 kts 276°
2026-04-21 21:06 21.97858 -94.99632 36070 ft 414 kts 276°
2026-04-21 21:07 21.98579 -95.05790 36068 ft 415 kts 276°
2026-04-21 21:07 21.99304 -95.11955 36068 ft 415 kts 276°
2026-04-21 21:08 22.00027 -95.18121 36069 ft 415 kts 276°
2026-04-21 21:08 22.00747 -95.24292 36065 ft 415 kts 276°
2026-04-21 21:09 22.01464 -95.30461 36064 ft 415 kts 276°
2026-04-21 21:09 22.02179 -95.36636 36066 ft 415 kts 276°
2026-04-21 21:10 22.02893 -95.42816 36062 ft 415 kts 275°
2026-04-21 21:10 22.03603 -95.48987 36064 ft 415 kts 275°
2026-04-21 21:11 22.04312 -95.55167 36064 ft 415 kts 275°
2026-04-21 21:11 22.05017 -95.61339 36062 ft 415 kts 275°
2026-04-21 21:12 22.05721 -95.67521 36059 ft 415 kts 275°
2026-04-21 21:12 22.06418 -95.73662 36061 ft 415 kts 275°
2026-04-21 21:13 22.07117 -95.79839 36059 ft 415 kts 275°
2026-04-21 21:13 22.07815 -95.86023 36052 ft 415 kts 275°
2026-04-21 21:14 22.08510 -95.92209 36063 ft 415 kts 275°
2026-04-21 21:14 22.09202 -95.98392 36055 ft 415 kts 275°
2026-04-21 21:15 22.09892 -96.04576 36049 ft 416 kts 275°
2026-04-21 21:15 22.10580 -96.10765 36059 ft 416 kts 275°
2026-04-21 21:16 22.11266 -96.16952 36058 ft 416 kts 275°
2026-04-21 21:16 22.11950 -96.23142 36058 ft 416 kts 275°
2026-04-21 21:17 22.12632 -96.29339 36058 ft 416 kts 275°
2026-04-21 21:17 22.13310 -96.35529 36051 ft 416 kts 275°
2026-04-21 21:18 22.13987 -96.41721 36055 ft 416 kts 275°
2026-04-21 21:18 22.14662 -96.47921 36056 ft 416 kts 275°
2026-04-21 21:19 22.15334 -96.54114 36052 ft 416 kts 275°
2026-04-21 21:19 22.15996 -96.60321 36050 ft 416 kts 275°
2026-04-21 21:20 22.16650 -96.66522 36054 ft 416 kts 275°
2026-04-21 21:20 22.17299 -96.72696 36054 ft 417 kts 275°
2026-04-21 21:21 22.17846 -96.77900 36053 ft 417 kts 275°
2026-04-21 21:21 22.18601 -96.85121 36045 ft 417 kts 275°
2026-04-21 21:22 22.19145 -96.90333 36050 ft 417 kts 275°
2026-04-21 21:22 22.19791 -96.96547 36051 ft 417 kts 275°
2026-04-21 21:23 22.20435 -97.02772 36050 ft 417 kts 275°
2026-04-21 21:23 22.21073 -97.08958 36052 ft 417 kts 275°
2026-04-21 21:24 22.21713 -97.15187 36043 ft 417 kts 275°
2026-04-21 21:24 22.22350 -97.21409 36046 ft 417 kts 275°
2026-04-21 21:25 22.22985 -97.27634 36042 ft 417 kts 275°
2026-04-21 21:25 22.23617 -97.33858 36044 ft 417 kts 275°
2026-04-21 21:26 22.24247 -97.40085 36040 ft 417 kts 275°
2026-04-21 21:26 22.24886 -97.46317 36036 ft 417 kts 275°
2026-04-21 21:27 22.25535 -97.52541 36038 ft 417 kts 275°
2026-04-21 21:27 22.26181 -97.58767 36043 ft 417 kts 275°
2026-04-21 21:28 22.26824 -97.64999 36044 ft 417 kts 275°
2026-04-21 21:29 22.27782 -97.74344 36054 ft 418 kts 275°
2026-04-21 21:29 22.28419 -97.80578 36055 ft 418 kts 275°
2026-04-21 21:30 22.29017 -97.86813 36052 ft 417 kts 271°
2026-04-21 21:30 22.29043 -97.93070 36053 ft 417 kts 269°
2026-04-21 21:31 22.28997 -97.99326 36046 ft 417 kts 269°
2026-04-21 21:31 22.28961 -98.05583 36044 ft 417 kts 269°
2026-04-21 21:32 22.28935 -98.11857 36024 ft 418 kts 269°
2026-04-21 21:32 22.28913 -98.18093 36020 ft 418 kts 269°
2026-04-21 21:33 22.28889 -98.24367 36003 ft 418 kts 269°
2026-04-21 21:33 22.28863 -98.30642 36003 ft 418 kts 269°
2026-04-21 21:34 22.28834 -98.36947 36049 ft 422 kts 269°
2026-04-21 21:34 22.28819 -98.40106 36254 ft 421 kts 269°
2026-04-21 21:34 22.28803 -98.43253 36573 ft 418 kts 269°
2026-04-21 21:34 22.28787 -98.46385 36853 ft 416 kts 269°
2026-04-21 21:35 22.28770 -98.49503 37035 ft 416 kts 269°
2026-04-21 21:35 22.28752 -98.52622 37246 ft 415 kts 269°
2026-04-21 21:35 22.28734 -98.55731 37470 ft 414 kts 268°
2026-04-21 21:35 22.28715 -98.58838 37651 ft 413 kts 268°
2026-04-21 21:36 22.28696 -98.61933 37829 ft 413 kts 268°
2026-04-21 21:36 22.28676 -98.65026 37972 ft 413 kts 268°
2026-04-21 21:36 22.28655 -98.68134 37968 ft 415 kts 268°
2026-04-21 21:37 22.28612 -98.74366 37980 ft 414 kts 268°
2026-04-21 21:37 22.28567 -98.80584 37980 ft 413 kts 268°
2026-04-21 21:38 22.28520 -98.86770 37982 ft 411 kts 268°
2026-04-21 21:38 22.28470 -98.92928 37990 ft 409 kts 268°
2026-04-21 21:39 22.28418 -98.99075 37989 ft 409 kts 268°
2026-04-21 21:39 22.28364 -99.05187 37987 ft 410 kts 268°
2026-04-21 21:40 22.28308 -99.11348 38001 ft 411 kts 268°
2026-04-21 21:40 22.28249 -99.17529 38010 ft 412 kts 268°
2026-04-21 21:41 22.28187 -99.23726 37993 ft 414 kts 268°
2026-04-21 21:41 22.28123 -99.29956 38012 ft 415 kts 268°
2026-04-21 21:42 22.28056 -99.36211 38002 ft 417 kts 268°
2026-04-21 21:42 22.27987 -99.42469 38010 ft 417 kts 268°
2026-04-21 21:43 22.27915 -99.48742 38012 ft 418 kts 268°
2026-04-21 21:43 22.27841 -99.55013 38006 ft 418 kts 268°
2026-04-21 21:44 22.27764 -99.61290 37996 ft 417 kts 268°
2026-04-21 21:44 22.27686 -99.67503 37985 ft 416 kts 268°
2026-04-21 21:45 22.27605 -99.73778 37980 ft 415 kts 268°
2026-04-21 21:45 22.27522 -99.80006 37972 ft 414 kts 268°
2026-04-21 21:46 22.27436 -99.86216 37962 ft 413 kts 268°
2026-04-21 21:46 22.27349 -99.92361 37951 ft 412 kts 268°
2026-04-21 21:47 22.27260 -99.98552 37947 ft 412 kts 268°
2026-04-21 21:47 22.27168 -100.04729 37959 ft 411 kts 268°
2026-04-21 21:48 22.27073 -100.10904 37945 ft 411 kts 268°
2026-04-21 21:48 22.26977 -100.17073 37964 ft 411 kts 268°
2026-04-21 21:49 22.26878 -100.23253 37955 ft 412 kts 268°
2026-04-21 21:49 22.26776 -100.29443 37958 ft 413 kts 268°
2026-04-21 21:50 22.26672 -100.35643 37975 ft 413 kts 268°
2026-04-21 21:50 22.26566 -100.41860 37979 ft 415 kts 268°
2026-04-21 21:51 22.26457 -100.48088 37982 ft 415 kts 268°
2026-04-21 21:51 22.26345 -100.54329 37997 ft 416 kts 268°
2026-04-21 21:52 22.26231 -100.60574 38055 ft 416 kts 268°
2026-04-21 21:52 22.26114 -100.66823 38112 ft 416 kts 268°
2026-04-21 21:53 22.25995 -100.73068 38160 ft 416 kts 268°
2026-04-21 21:53 22.25874 -100.79306 38217 ft 416 kts 268°
2026-04-21 21:54 22.25751 -100.85541 38267 ft 415 kts 268°
2026-04-21 21:54 22.25625 -100.91771 38269 ft 415 kts 268°
2026-04-21 21:55 22.25677 -100.97997 38264 ft 415 kts 270°
2026-04-21 21:55 22.25903 -101.04176 38249 ft 414 kts 271°
2026-04-21 21:56 22.26130 -101.10389 38188 ft 414 kts 270°
2026-04-21 21:56 22.26334 -101.16610 38126 ft 413 kts 270°
2026-04-21 21:57 22.26526 -101.22811 38062 ft 413 kts 270°
2026-04-21 21:57 22.26710 -101.29005 38007 ft 413 kts 271°
2026-04-21 21:58 22.26892 -101.35201 37979 ft 412 kts 270°
2026-04-21 21:58 22.27073 -101.41385 37983 ft 413 kts 270°
2026-04-21 21:59 22.27252 -101.47587 37976 ft 413 kts 270°
2026-04-21 21:59 22.27428 -101.53779 37984 ft 413 kts 270°
2026-04-21 22:00 22.27601 -101.59947 37985 ft 413 kts 270°
2026-04-21 22:00 22.27772 -101.66146 37984 ft 413 kts 270°
2026-04-21 22:01 22.27941 -101.72354 37982 ft 413 kts 270°
2026-04-21 22:01 22.28108 -101.78547 37975 ft 413 kts 270°
2026-04-21 22:02 22.28272 -101.84734 37981 ft 412 kts 270°
2026-04-21 22:02 22.28434 -101.90916 37972 ft 411 kts 270°
2026-04-21 22:03 22.28592 -101.97082 37973 ft 411 kts 270°
2026-04-21 22:03 22.28749 -102.03244 37971 ft 410 kts 270°
2026-04-21 22:04 22.28903 -102.09393 37966 ft 409 kts 270°
2026-04-21 22:04 22.29054 -102.15524 37974 ft 409 kts 270°
2026-04-21 22:05 22.29202 -102.21667 37970 ft 409 kts 270°
2026-04-21 22:05 22.29349 -102.27812 37972 ft 409 kts 270°
2026-04-21 22:06 22.29469 -102.32914 37974 ft 409 kts 270°
2026-04-21 22:06 22.29636 -102.40099 37981 ft 410 kts 270°
2026-04-21 22:07 22.29752 -102.45215 37977 ft 410 kts 270°
2026-04-21 22:07 22.29890 -102.51376 37975 ft 411 kts 270°
2026-04-21 22:08 22.30026 -102.57558 37986 ft 412 kts 270°
2026-04-21 22:08 22.30161 -102.63754 37983 ft 413 kts 270°
2026-04-21 22:09 22.30293 -102.69961 37977 ft 413 kts 270°
2026-04-21 22:09 22.30423 -102.76160 37976 ft 413 kts 270°
2026-04-21 22:10 22.30551 -102.82364 37970 ft 413 kts 270°
2026-04-21 22:10 22.30692 -102.88557 37973 ft 412 kts 270°
2026-04-21 22:11 22.30868 -102.94739 37963 ft 411 kts 270°
2026-04-21 22:11 22.31046 -103.00906 37963 ft 410 kts 270°
2026-04-21 22:12 22.31215 -103.07011 37962 ft 409 kts 270°
2026-04-21 22:12 22.31382 -103.13153 37968 ft 409 kts 270°
2026-04-21 22:13 22.31544 -103.19293 37970 ft 409 kts 270°
2026-04-21 22:13 22.31705 -103.25433 37966 ft 409 kts 270°
2026-04-21 22:14 22.31863 -103.31575 37973 ft 409 kts 270°
2026-04-21 22:14 22.32019 -103.37715 37965 ft 409 kts 270°
2026-04-21 22:15 22.32172 -103.43853 37974 ft 409 kts 270°
2026-04-21 22:15 22.32324 -103.50000 37972 ft 409 kts 270°
2026-04-21 22:16 22.32473 -103.56144 37983 ft 409 kts 270°
2026-04-21 22:16 22.32620 -103.62286 37981 ft 409 kts 270°
2026-04-21 22:17 22.32764 -103.68426 37980 ft 409 kts 270°
2026-04-21 22:17 22.32906 -103.74578 37982 ft 410 kts 270°
2026-04-21 22:18 22.33046 -103.80730 37984 ft 409 kts 269°
2026-04-21 22:18 22.33184 -103.86876 37993 ft 409 kts 270°
2026-04-21 22:19 22.33319 -103.93022 37988 ft 409 kts 269°
2026-04-21 22:19 22.33452 -103.99164 38004 ft 409 kts 270°
2026-04-21 22:20 22.33582 -104.05300 37990 ft 407 kts 270°
2026-04-21 22:20 22.33712 -104.11461 38007 ft 408 kts 270°
2026-04-21 22:21 22.33837 -104.17614 37986 ft 409 kts 270°
2026-04-21 22:21 22.33899 -104.23756 38011 ft 406 kts 269°
2026-04-21 22:22 22.34003 -104.29859 38017 ft 407 kts 270°
2026-04-21 22:22 22.34170 -104.35990 38008 ft 408 kts 270°
2026-04-21 22:23 22.34311 -104.42133 38020 ft 410 kts 270°
2026-04-21 22:23 22.34431 -104.48304 38015 ft 411 kts 270°
2026-04-21 22:24 22.34543 -104.54475 38011 ft 412 kts 269°
2026-04-21 22:24 22.34653 -104.60673 38008 ft 412 kts 270°
2026-04-21 22:25 22.34762 -104.66828 38018 ft 412 kts 270°
2026-04-21 22:25 22.34894 -104.73060 38003 ft 413 kts 269°
2026-04-21 22:26 22.34986 -104.79212 38013 ft 412 kts 269°
2026-04-21 22:26 22.35076 -104.85432 38006 ft 411 kts 269°
2026-04-21 22:27 22.35171 -104.91609 38016 ft 411 kts 269°
2026-04-21 22:27 22.35267 -104.97783 38005 ft 411 kts 269°
2026-04-21 22:28 22.35360 -105.03916 37992 ft 411 kts 270°
2026-04-21 22:28 22.35452 -105.10090 37985 ft 411 kts 270°
2026-04-21 22:29 22.35541 -105.16270 37982 ft 411 kts 270°
2026-04-21 22:29 22.35628 -105.22455 37967 ft 412 kts 270°
2026-04-21 22:30 22.35713 -105.28637 37960 ft 412 kts 270°
2026-04-21 22:30 22.35805 -105.34826 37959 ft 412 kts 271°
2026-04-21 22:31 22.36503 -105.40991 37955 ft 413 kts 276°
2026-04-21 22:31 22.37343 -105.47136 37957 ft 413 kts 276°
2026-04-21 22:32 22.38171 -105.53284 37955 ft 413 kts 276°
2026-04-21 22:32 22.38982 -105.59431 37951 ft 413 kts 276°
2026-04-21 22:33 22.39786 -105.65586 37948 ft 413 kts 276°
2026-04-21 22:33 22.40584 -105.71733 37956 ft 413 kts 276°
2026-04-21 22:34 22.41381 -105.77883 37961 ft 413 kts 276°
2026-04-21 22:34 22.42175 -105.84030 37962 ft 413 kts 276°
2026-04-21 22:35 22.42965 -105.90163 37972 ft 412 kts 276°
2026-04-21 22:35 22.43751 -105.96286 37972 ft 411 kts 276°
2026-04-21 22:36 22.44926 -106.05471 37981 ft 410 kts 276°
2026-04-21 22:36 22.45704 -106.11578 37991 ft 410 kts 276°
2026-04-21 22:37 22.46474 -106.17636 37989 ft 409 kts 276°
2026-04-21 22:37 22.47251 -106.23771 37990 ft 408 kts 276°
2026-04-21 22:38 22.48014 -106.29815 37993 ft 408 kts 276°
2026-04-21 22:38 22.48778 -106.35888 37991 ft 407 kts 276°
2026-04-21 22:39 22.49539 -106.41952 37994 ft 407 kts 276°
2026-04-21 22:39 22.50297 -106.48012 37993 ft 406 kts 276°
2026-04-21 22:40 22.51053 -106.54069 37996 ft 406 kts 276°
2026-04-21 22:40 22.51805 -106.60118 37993 ft 405 kts 276°
2026-04-21 22:41 22.52554 -106.66162 37992 ft 405 kts 276°
2026-04-21 22:41 22.53300 -106.72206 37995 ft 405 kts 276°
2026-04-21 22:42 22.54044 -106.78245 37993 ft 405 kts 276°
2026-04-21 22:42 22.54786 -106.84287 37994 ft 405 kts 276°
2026-04-21 22:43 22.55526 -106.90333 37993 ft 405 kts 276°
2026-04-21 22:43 22.56259 -106.96345 37991 ft 406 kts 276°
2026-04-21 22:44 22.56995 -107.02398 37989 ft 406 kts 276°
2026-04-21 22:44 22.57729 -107.08450 37993 ft 406 kts 276°
2026-04-21 22:45 22.58461 -107.14507 37989 ft 406 kts 276°
2026-04-21 22:45 22.59192 -107.20576 37992 ft 406 kts 276°
2026-04-21 22:46 22.59920 -107.26638 37992 ft 407 kts 276°
2026-04-21 22:46 22.60647 -107.32711 37989 ft 407 kts 276°
2026-04-21 22:47 22.61371 -107.38788 37992 ft 407 kts 276°
2026-04-21 22:47 22.62093 -107.44855 37989 ft 407 kts 276°
2026-04-21 22:48 22.62692 -107.49907 37725 ft 411 kts 276°
2026-04-21 22:48 22.63056 -107.52991 37241 ft 412 kts 276°
2026-04-21 22:48 22.63418 -107.56057 36681 ft 409 kts 276°
2026-04-21 22:49 22.63777 -107.59099 36069 ft 408 kts 276°
2026-04-21 22:49 22.64136 -107.62144 35432 ft 408 kts 276°
2026-04-21 22:49 22.64494 -107.65195 34779 ft 408 kts 276°
2026-04-21 22:49 22.64851 -107.68241 34121 ft 409 kts 276°
2026-04-21 22:50 22.65207 -107.71284 33600 ft 405 kts 276°
2026-04-21 22:50 22.65561 -107.74305 33068 ft 402 kts 276°
2026-04-21 22:50 22.65910 -107.77293 32580 ft 398 kts 276°
2026-04-21 22:50 22.66254 -107.80247 32113 ft 394 kts 276°
2026-04-21 22:51 22.66595 -107.83178 31652 ft 391 kts 276°
2026-04-21 22:51 22.66933 -107.86083 31202 ft 388 kts 276°
2026-04-21 22:51 22.67267 -107.88971 30755 ft 385 kts 276°
2026-04-21 22:51 22.67599 -107.91838 30312 ft 383 kts 277°
2026-04-21 22:52 22.67925 -107.94652 29838 ft 381 kts 277°
2026-04-21 22:52 22.68252 -107.97486 29328 ft 378 kts 277°
2026-04-21 22:52 22.68576 -108.00301 28846 ft 375 kts 277°
2026-04-21 22:52 22.68897 -108.03092 28391 ft 371 kts 276°
2026-04-21 22:53 22.69215 -108.05856 27932 ft 368 kts 276°
2026-04-21 22:53 22.69529 -108.08597 27483 ft 366 kts 276°
2026-04-21 22:53 22.69841 -108.11321 27038 ft 363 kts 276°
2026-04-21 22:53 22.70150 -108.14020 26601 ft 361 kts 276°
2026-04-21 22:54 22.70457 -108.16706 26168 ft 358 kts 276°
2026-04-21 22:54 22.70761 -108.19375 25730 ft 356 kts 276°
2026-04-21 22:54 22.71064 -108.22035 25298 ft 355 kts 276°
2026-04-21 22:54 22.71365 -108.24684 24874 ft 353 kts 276°
2026-04-21 22:55 22.71664 -108.27322 24420 ft 353 kts 276°
2026-04-21 22:55 22.71962 -108.29947 23997 ft 352 kts 276°
2026-04-21 22:55 22.72259 -108.32575 23548 ft 351 kts 276°
2026-04-21 22:55 22.72555 -108.35195 23052 ft 349 kts 276°
2026-04-21 22:56 22.72848 -108.37792 22599 ft 347 kts 276°
2026-04-21 22:56 22.73140 -108.40378 22153 ft 344 kts 276°
2026-04-21 22:56 22.73428 -108.42938 21724 ft 342 kts 276°
2026-04-21 22:56 22.73714 -108.45488 21322 ft 340 kts 276°
2026-04-21 22:57 22.73999 -108.48025 20895 ft 338 kts 276°
2026-04-21 22:57 22.74281 -108.50543 20478 ft 337 kts 276°
2026-04-21 22:57 22.74570 -108.53025 20066 ft 335 kts 278°
2026-04-21 22:57 22.75177 -108.55462 19646 ft 337 kts 287°
2026-04-21 22:58 22.75992 -108.57852 19224 ft 339 kts 289°
2026-04-21 22:58 22.76843 -108.60241 18809 ft 340 kts 289°
2026-04-21 22:58 22.77695 -108.62639 18380 ft 342 kts 289°
2026-04-21 22:58 22.78543 -108.65059 17906 ft 343 kts 288°
2026-04-21 22:59 22.79380 -108.67478 17464 ft 343 kts 288°
2026-04-21 22:59 22.80208 -108.69895 17030 ft 342 kts 288°
2026-04-21 22:59 22.81031 -108.72312 16604 ft 342 kts 288°
2026-04-21 22:59 22.81850 -108.74725 16186 ft 341 kts 287°
2026-04-21 23:00 22.82668 -108.77137 15759 ft 339 kts 287°
2026-04-21 23:00 22.83476 -108.79522 15351 ft 336 kts 287°
2026-04-21 23:00 22.84281 -108.81898 14952 ft 334 kts 287°
2026-04-21 23:00 22.85077 -108.84251 14553 ft 332 kts 287°
2026-04-21 23:01 22.85872 -108.86601 14138 ft 331 kts 287°
2026-04-21 23:01 22.86657 -108.88919 13908 ft 324 kts 287°
2026-04-21 23:01 22.87430 -108.91193 13696 ft 319 kts 287°
2026-04-21 23:01 22.88193 -108.93443 13518 ft 319 kts 287°
2026-04-21 23:02 22.88965 -108.95726 13342 ft 325 kts 287°
2026-04-21 23:02 22.89749 -108.98042 13167 ft 329 kts 287°
2026-04-21 23:02 22.90534 -109.00363 12975 ft 327 kts 287°
2026-04-21 23:02 22.91319 -109.02679 12799 ft 326 kts 287°
2026-04-21 23:03 22.92097 -109.04980 12621 ft 324 kts 287°
2026-04-21 23:03 22.92871 -109.07269 12447 ft 324 kts 287°
2026-04-21 23:03 22.93645 -109.09560 12269 ft 323 kts 287°
2026-04-21 23:03 22.94416 -109.11843 12100 ft 323 kts 287°
2026-04-21 23:04 22.95189 -109.14135 11922 ft 322 kts 287°
2026-04-21 23:04 22.95957 -109.16414 11751 ft 322 kts 287°
2026-04-21 23:04 22.96720 -109.18677 11577 ft 323 kts 287°
2026-04-21 23:04 22.97489 -109.20961 11401 ft 323 kts 287°
2026-04-21 23:05 22.98257 -109.23243 11223 ft 323 kts 287°
2026-04-21 23:05 22.99027 -109.25528 11050 ft 322 kts 287°
2026-04-21 23:05 22.99798 -109.27820 10872 ft 322 kts 287°
2026-04-21 23:05 23.00803 -109.29999 10681 ft 328 kts 304°
2026-04-21 23:06 23.02365 -109.31793 10529 ft 324 kts 312°
2026-04-21 23:06 23.03978 -109.33466 10341 ft 317 kts 313°
2026-04-21 23:06 23.05557 -109.35088 10171 ft 309 kts 313°
2026-04-21 23:06 23.07093 -109.36675 9994 ft 301 kts 312°
2026-04-21 23:07 23.08560 -109.38204 9941 ft 291 kts 312°
2026-04-21 23:07 23.10028 -109.39746 9699 ft 287 kts 311°
2026-04-21 23:07 23.11447 -109.41240 9540 ft 282 kts 311°
2026-04-21 23:07 23.12852 -109.42724 9384 ft 281 kts 311°
2026-04-21 23:08 23.14253 -109.44206 9237 ft 282 kts 311°
2026-04-21 23:08 23.15662 -109.45695 9084 ft 282 kts 312°
2026-04-21 23:08 23.17082 -109.47196 8763 ft 289 kts 312°
2026-04-21 23:08 23.18533 -109.48726 8381 ft 291 kts 312°
2026-04-21 23:09 23.19984 -109.50255 7966 ft 290 kts 312°
2026-04-21 23:09 23.21427 -109.51774 7559 ft 287 kts 312°
2026-04-21 23:09 23.22849 -109.53273 7178 ft 283 kts 312°
2026-04-21 23:09 23.24257 -109.54759 6802 ft 281 kts 313°
2026-04-21 23:10 23.25653 -109.56234 6415 ft 279 kts 313°
2026-04-21 23:10 23.27040 -109.57699 5990 ft 277 kts 313°
2026-04-21 23:10 23.28416 -109.59152 5597 ft 274 kts 313°
2026-04-21 23:10 23.29771 -109.60584 5212 ft 270 kts 314°
2026-04-21 23:11 23.31110 -109.61998 4853 ft 266 kts 314°
2026-04-21 23:11 23.32424 -109.63387 4451 ft 262 kts 314°
2026-04-21 23:11 23.33529 -109.64928 4078 ft 256 kts 291°
2026-04-21 23:11 23.33897 -109.66768 3853 ft 245 kts 270°
2026-04-21 23:12 23.33794 -109.68593 3644 ft 239 kts 263°
2026-04-21 23:12 23.33610 -109.70383 3437 ft 237 kts 263°
2026-04-21 23:12 23.33168 -109.72074 3170 ft 231 kts 234°
2026-04-21 23:12 23.31943 -109.73082 2992 ft 219 kts 197°
2026-04-21 23:13 23.30497 -109.73447 2848 ft 209 kts 191°
2026-04-21 23:13 23.29084 -109.73561 2634 ft 199 kts 179°
2026-04-21 23:13 23.27740 -109.73490 2462 ft 188 kts 175°
2026-04-21 23:13 23.26478 -109.73358 2275 ft 177 kts 174°
2026-04-21 23:14 23.25295 -109.73222 2121 ft 165 kts 174°
2026-04-21 23:14 23.24185 -109.73094 1913 ft 158 kts 174°
2026-04-21 23:14 23.23101 -109.72973 1729 ft 157 kts 173°
2026-04-21 23:14 23.22036 -109.72851 1537 ft 150 kts 173°
2026-04-21 23:15 23.20984 -109.72731 1312 ft 152 kts 171°
2026-04-21 23:15 23.19949 -109.72611 1108 ft 147 kts 171°
2026-04-21 23:15 23.18921 -109.72493 919 ft 149 kts 173°
2026-04-21 23:15 23.17888 -109.72377 708 ft 151 kts 171°
2026-04-21 23:16 23.16835 -109.72256 532 ft 154 kts 172°
2026-04-21 23:16 23.15804 -109.72147 380 ft 147 kts 171°
2026-04-21 23:16 23.14840 -109.72031 352 ft 121 kts 176°
2026-04-21 23:16 23.14238 -109.71963 332 ft 45 kts 173°
2026-04-21 23:17 23.13983 -109.71938 328 ft 23 kts 172°
2026-04-21 23:17 23.13931 -109.71859 328 ft 12 kts 86°
2026-04-21 23:17 23.13940 -109.71765 326 ft 13 kts 78°
2026-04-21 23:17 23.14024 -109.71731 327 ft 16 kts 354°
2026-04-21 23:18 23.14151 -109.71748 330 ft 21 kts 354°
2026-04-21 23:18 23.14299 -109.71764 333 ft 22 kts 354°
2026-04-21 23:18 23.14447 -109.71781 339 ft 21 kts 354°
2026-04-21 23:18 23.14591 -109.71798 350 ft 20 kts 354°
2026-04-21 23:19 23.14730 -109.71814 351 ft 20 kts 354°
2026-04-21 23:19 23.14866 -109.71830 353 ft 19 kts 354°
2026-04-21 23:19 23.14997 -109.71845 353 ft 19 kts 354°
2026-04-21 23:19 23.15123 -109.71859 361 ft 18 kts 354°
2026-04-21 23:20 23.15245 -109.71873 360 ft 17 kts 354°
2026-04-21 23:20 23.15363 -109.71886 362 ft 17 kts 354°
2026-04-21 23:20 23.15476 -109.71899 362 ft 16 kts 353°
2026-04-21 23:20 23.15576 -109.71908 364 ft 12 kts
2026-04-21 23:21 23.15606 -109.71846 365 ft 10 kts 92°
2026-04-21 23:21 23.15611 -109.71789 365 ft 4 kts 61°
2026-04-21 23:21 23.15634 -109.71780 368 ft 2 kts 26°
2026-04-21 23:21 23.15640 -109.71765 369 ft 3 kts 69°
2026-04-21 23:22 23.15640 -109.71763 368 ft 0 kts 82°